Time,TemperatureF,DewpointF,PressureIn,WindDirection,WindDirectionDegrees,WindSpeedMPH,WindSpeedGustMPH,Humidity,HourlyPrecipIn,Conditions,Clouds,dailyrainin,SoftwareType,DateUTC
2013-03-16 00:00:00,66.9,51.2,29.89,SE,143,18.0,21.0,57,0.00,,---,0.00,VWS V14.01,2013-03-16 05:00:00,
2013-03-16 00:05:00,66.8,51.1,29.89,South,172,11.0,17.0,57,0.00,,---,0.00,VWS V14.01,2013-03-16 05:05:00,
2013-03-16 00:10:00,66.9,51.2,29.89,South,169,13.0,18.0,57,0.00,,---,0.00,VWS V14.01,2013-03-16 05:10:00,
2013-03-16 00:15:00,66.8,51.1,29.89,SSE,163,13.0,20.0,57,0.00,,---,0.00,VWS V14.01,2013-03-16 05:15:00,
2013-03-16 00:20:00,66.8,51.6,29.88,SSE,160,12.0,20.0,58,0.00,,---,0.00,VWS V14.01,2013-03-16 05:20:00,
2013-03-16 00:25:00,66.7,51.5,29.89,SE,142,9.0,20.0,58,0.00,,---,0.00,VWS V14.01,2013-03-16 05:25:00,
2013-03-16 00:30:00,66.6,51.4,29.89,SSE,167,10.0,20.0,58,0.00,,---,0.00,VWS V14.01,2013-03-16 05:30:00,
2013-03-16 00:35:00,66.6,51.4,29.88,SSE,159,10.0,14.0,58,0.00,,---,0.00,VWS V14.01,2013-03-16 05:35:00,
2013-03-16 00:40:00,66.5,51.3,29.88,SSE,163,15.0,19.0,58,0.00,,---,0.00,VWS V14.01,2013-03-16 05:40:00,
2013-03-16 00:45:00,66.4,51.7,29.88,SSE,166,12.0,19.0,59,0.00,,---,0.00,VWS V14.01,2013-03-16 05:45:00,
2013-03-16 00:50:00,66.4,51.7,29.88,South,181,10.0,19.0,59,0.00,,---,0.00,VWS V14.01,2013-03-16 05:50:00,
2013-03-16 00:55:00,66.3,51.6,29.88,South,179,11.0,19.0,59,0.00,,---,0.00,VWS V14.01,2013-03-16 05:55:00,
2013-03-16 01:00:00,66.2,51.5,29.88,SSE,166,13.0,19.0,59,0.00,,---,0.00,VWS V14.01,2013-03-16 06:00:00,
2013-03-16 01:05:00,66.0,51.7,29.88,SSE,162,12.0,17.0,60,0.00,,---,0.00,VWS V14.01,2013-03-16 06:05:00,
2013-03-16 01:10:00,65.9,51.6,29.88,South,186,9.0,17.0,60,0.00,,---,0.00,VWS V14.01,2013-03-16 06:10:00,
2013-03-16 01:15:00,65.7,51.5,29.88,SSE,163,10.0,17.0,60,0.00,,---,0.00,VWS V14.01,2013-03-16 06:15:00,
2013-03-16 01:20:00,65.7,51.5,29.88,SSE,163,17.0,18.0,60,0.00,,---,0.00,VWS V14.01,2013-03-16 06:20:00,
2013-03-16 01:25:00,65.8,51.5,29.87,SSE,148,12.0,23.0,60,0.00,,---,0.00,VWS V14.01,2013-03-16 06:25:00,
2013-03-16 01:30:00,65.6,51.8,29.87,South,173,17.0,23.0,61,0.00,,---,0.00,VWS V14.01,2013-03-16 06:30:00,
2013-03-16 01:35:00,65.5,51.7,29.87,South,172,19.0,20.0,61,0.00,,---,0.00,VWS V14.01,2013-03-16 06:35:00,
2013-03-16 01:40:00,65.3,51.5,29.87,South,188,10.0,20.0,61,0.00,,---,0.00,VWS V14.01,2013-03-16 06:40:00,
2013-03-16 01:45:00,65.1,51.3,29.87,SE,142,12.0,21.0,61,0.00,,---,0.00,VWS V14.01,2013-03-16 06:45:00,
2013-03-16 01:50:00,65.0,51.7,29.87,South,172,9.0,21.0,62,0.00,,---,0.00,VWS V14.01,2013-03-16 06:50:00,
2013-03-16 01:55:00,64.8,51.5,29.87,South,172,11.0,22.0,62,0.00,,---,0.00,VWS V14.01,2013-03-16 06:55:00,
2013-03-16 02:00:00,64.7,51.0,29.87,SSW,212,9.0,24.0,61,0.00,,---,0.00,VWS V14.01,2013-03-16 07:00:00,
2013-03-16 02:05:00,64.6,51.3,29.87,SSE,158,13.0,19.0,62,0.00,,---,0.00,VWS V14.01,2013-03-16 07:05:00,
2013-03-16 02:10:00,64.4,51.1,29.87,SSW,203,5.0,19.0,62,0.00,,---,0.00,VWS V14.01,2013-03-16 07:10:00,
2013-03-16 02:15:00,64.3,50.6,29.87,SSE,165,15.0,25.0,61,0.00,,---,0.00,VWS V14.01,2013-03-16 07:15:00,
2013-03-16 02:20:00,64.2,50.9,29.87,SSW,197,14.0,25.0,62,0.00,,---,0.00,VWS V14.01,2013-03-16 07:20:00,
2013-03-16 02:25:00,64.0,50.7,29.87,SSW,211,8.0,25.0,62,0.00,,---,0.00,VWS V14.01,2013-03-16 07:25:00,
2013-03-16 02:30:00,63.7,50.5,29.87,SSE,161,10.0,25.0,62,0.00,,---,0.00,VWS V14.01,2013-03-16 07:30:00,
2013-03-16 02:35:00,63.5,50.3,29.87,SSE,156,19.0,19.0,62,0.00,,---,0.00,VWS V14.01,2013-03-16 07:35:00,
2013-03-16 02:40:00,63.4,50.2,29.87,SSE,163,9.0,22.0,62,0.00,,---,0.00,VWS V14.01,2013-03-16 07:40:00,
2013-03-16 02:45:00,63.2,50.4,29.87,SSE,156,11.0,23.0,63,0.00,,---,0.00,VWS V14.01,2013-03-16 07:45:00,
2013-03-16 02:50:00,63.1,50.3,29.87,South,179,8.0,23.0,63,0.00,,---,0.00,VWS V14.01,2013-03-16 07:50:00,
2013-03-16 02:55:00,62.8,50.0,29.87,South,172,15.0,23.0,63,0.00,,---,0.00,VWS V14.01,2013-03-16 07:55:00,
2013-03-16 03:00:00,62.6,50.3,29.87,South,175,11.0,23.0,64,0.00,,---,0.00,VWS V14.01,2013-03-16 08:00:00,
2013-03-16 03:05:00,62.5,50.6,29.87,SSW,193,7.0,21.0,65,0.00,,---,0.00,VWS V14.01,2013-03-16 08:05:00,
2013-03-16 03:10:00,62.3,50.4,29.86,SSE,166,7.0,21.0,65,0.00,,---,0.00,VWS V14.01,2013-03-16 08:10:00,
2013-03-16 03:15:00,62.1,50.6,29.86,SSE,167,13.0,21.0,66,0.00,,---,0.00,VWS V14.01,2013-03-16 08:15:00,
2013-03-16 03:20:00,61.9,50.8,29.86,South,174,10.0,21.0,67,0.00,,---,0.00,VWS V14.01,2013-03-16 08:20:00,
2013-03-16 03:25:00,61.8,50.7,29.86,SSE,149,17.0,21.0,67,0.00,,---,0.00,VWS V14.01,2013-03-16 08:25:00,
2013-03-16 03:30:00,61.7,51.0,29.87,South,172,15.0,21.0,68,0.00,,---,0.00,VWS V14.01,2013-03-16 08:30:00,
2013-03-16 03:35:00,61.5,51.2,29.87,WSW,240,11.0,15.0,69,0.00,,---,0.00,VWS V14.01,2013-03-16 08:35:00,
2013-03-16 03:40:00,61.3,51.1,29.86,SSW,193,8.0,15.0,69,0.00,,---,0.00,VWS V14.01,2013-03-16 08:40:00,
2013-03-16 03:45:00,61.2,51.3,29.87,South,188,6.0,19.0,70,0.00,,---,0.00,VWS V14.01,2013-03-16 08:45:00,
2013-03-16 03:50:00,61.2,51.7,29.86,SSW,196,7.0,19.0,71,0.00,,---,0.00,VWS V14.01,2013-03-16 08:50:00,
2013-03-16 03:55:00,61.0,51.9,29.86,South,169,9.0,19.0,72,0.00,,---,0.00,VWS V14.01,2013-03-16 08:55:00,
2013-03-16 04:00:00,60.9,51.8,29.86,SW,220,7.0,19.0,72,0.00,,---,0.00,VWS V14.01,2013-03-16 09:00:00,
2013-03-16 04:05:00,60.8,52.1,29.86,SSE,166,10.0,18.0,73,0.00,,---,0.00,VWS V14.01,2013-03-16 09:05:00,
2013-03-16 04:10:00,60.7,52.4,29.86,South,172,9.0,18.0,74,0.00,,---,0.00,VWS V14.01,2013-03-16 09:10:00,
2013-03-16 04:15:00,60.6,52.3,29.86,SSE,165,8.0,18.0,74,0.00,,---,0.00,VWS V14.01,2013-03-16 09:15:00,
2013-03-16 04:19:00,60.5,52.5,29.86,SSE,166,11.0,18.0,75,0.00,,---,0.00,VWS V14.01,2013-03-16 09:19:00,
2013-03-16 04:24:00,60.4,52.8,29.85,South,170,16.0,18.0,76,0.00,,---,0.00,VWS V14.01,2013-03-16 09:24:00,
2013-03-16 04:29:00,60.4,52.8,29.85,South,170,8.0,18.0,76,0.00,,---,0.00,VWS V14.01,2013-03-16 09:29:00,
2013-03-16 04:34:00,60.3,53.1,29.85,SE,146,10.0,17.0,77,0.00,,---,0.00,VWS V14.01,2013-03-16 09:34:00,
2013-03-16 04:39:00,60.3,53.4,29.85,South,188,7.0,17.0,78,0.00,,---,0.00,VWS V14.01,2013-03-16 09:39:00,
2013-03-16 04:44:00,60.2,53.3,29.85,SSE,153,12.0,17.0,78,0.00,,---,0.00,VWS V14.01,2013-03-16 09:44:00,
2013-03-16 04:49:00,60.1,53.6,29.85,South,169,10.0,17.0,79,0.00,,---,0.00,VWS V14.01,2013-03-16 09:49:00,
2013-03-16 04:54:00,60.1,53.6,29.85,South,175,8.0,18.0,79,0.00,,---,0.00,VWS V14.01,2013-03-16 09:54:00,
2013-03-16 04:59:00,60.0,53.8,29.85,SSE,164,13.0,18.0,80,0.00,,---,0.00,VWS V14.01,2013-03-16 09:59:00,
2013-03-16 05:04:00,59.9,53.7,29.85,South,177,9.0,16.0,80,0.00,,---,0.00,VWS V14.01,2013-03-16 10:04:00,
2013-03-16 05:09:00,59.8,54.0,29.85,South,170,9.0,16.0,81,0.00,,---,0.00,VWS V14.01,2013-03-16 10:09:00,
2013-03-16 05:14:00,59.7,53.9,29.85,SSE,160,10.0,16.0,81,0.00,,---,0.00,VWS V14.01,2013-03-16 10:14:00,
2013-03-16 05:19:00,59.8,54.0,29.85,SW,229,7.0,18.0,81,0.00,,---,0.00,VWS V14.01,2013-03-16 10:19:00,
2013-03-16 05:24:00,59.8,54.3,29.85,South,178,9.0,18.0,82,0.00,,---,0.00,VWS V14.01,2013-03-16 10:24:00,
2013-03-16 05:29:00,59.7,54.2,29.86,South,183,9.0,18.0,82,0.00,,---,0.00,VWS V14.01,2013-03-16 10:29:00,
2013-03-16 05:34:00,59.5,54.0,29.85,SSE,159,8.0,13.0,82,0.00,,---,0.00,VWS V14.01,2013-03-16 10:34:00,
2013-03-16 05:39:00,59.4,54.2,29.86,SW,224,7.0,13.0,83,0.00,,---,0.00,VWS V14.01,2013-03-16 10:39:00,
2013-03-16 05:44:00,59.4,54.2,29.86,SW,217,11.0,13.0,83,0.00,,---,0.00,VWS V14.01,2013-03-16 10:44:00,
2013-03-16 05:49:00,59.3,54.2,29.86,South,181,7.0,15.0,83,0.00,,---,0.00,VWS V14.01,2013-03-16 10:49:00,
2013-03-16 05:54:00,59.4,54.2,29.86,SSE,160,8.0,15.0,83,0.00,,---,0.00,VWS V14.01,2013-03-16 10:54:00,
2013-03-16 05:59:00,59.4,54.6,29.85,SSE,163,11.0,18.0,84,0.00,,---,0.00,VWS V14.01,2013-03-16 10:59:00,
2013-03-16 06:04:00,59.4,54.6,29.86,South,176,7.0,15.0,84,0.00,,---,0.00,VWS V14.01,2013-03-16 11:04:00,
2013-03-16 06:09:00,59.3,54.5,29.86,SSE,162,6.0,15.0,84,0.00,,---,0.00,VWS V14.01,2013-03-16 11:09:00,
2013-03-16 06:14:00,59.2,54.4,29.86,South,169,6.0,15.0,84,0.00,,---,0.00,VWS V14.01,2013-03-16 11:14:00,
2013-03-16 06:19:00,59.1,54.6,29.86,South,190,4.0,15.0,85,0.00,,---,0.00,VWS V14.01,2013-03-16 11:19:00,
2013-03-16 06:24:00,59.1,54.6,29.86,South,182,9.0,17.0,85,0.00,,---,0.00,VWS V14.01,2013-03-16 11:24:00,
2013-03-16 06:29:00,59.1,54.6,29.86,SSE,162,12.0,17.0,85,0.00,,---,0.00,VWS V14.01,2013-03-16 11:29:00,
2013-03-16 06:34:00,59.0,54.5,29.86,SSW,210,5.0,15.0,85,0.00,,---,0.00,VWS V14.01,2013-03-16 11:34:00,
2013-03-16 06:39:00,59.0,54.5,29.86,South,187,8.0,15.0,85,0.00,,---,0.00,VWS V14.01,2013-03-16 11:39:00,
2013-03-16 06:44:00,58.9,54.7,29.86,SSE,159,15.0,15.0,86,0.00,,---,0.00,VWS V14.01,2013-03-16 11:44:00,
2013-03-16 06:49:00,58.9,54.7,29.86,SSE,156,11.0,18.0,86,0.00,,---,0.00,VWS V14.01,2013-03-16 11:49:00,
2013-03-16 06:54:00,58.9,54.7,29.86,SSW,200,5.0,18.0,86,0.00,,---,0.00,VWS V14.01,2013-03-16 11:54:00,
2013-03-16 06:59:00,58.8,54.6,29.86,South,169,6.0,18.0,86,0.00,,---,0.00,VWS V14.01,2013-03-16 11:59:00,
2013-03-16 07:04:00,58.7,54.8,29.86,SSE,158,12.0,15.0,87,0.00,,---,0.00,VWS V14.01,2013-03-16 12:04:00,
2013-03-16 07:09:00,58.6,54.8,29.86,SSE,166,9.0,15.0,87,0.00,,---,0.00,VWS V14.01,2013-03-16 12:09:00,
2013-03-16 07:14:00,58.6,54.8,29.86,SSE,166,10.0,15.0,87,0.00,,---,0.00,VWS V14.01,2013-03-16 12:14:00,
2013-03-16 07:19:00,58.5,54.7,29.86,South,180,7.0,15.0,87,0.00,,---,0.00,VWS V14.01,2013-03-16 12:19:00,
2013-03-16 07:24:00,58.5,54.7,29.86,SSE,163,8.0,15.0,87,0.00,,---,0.00,VWS V14.01,2013-03-16 12:24:00,
2013-03-16 07:29:00,58.4,54.5,29.86,South,170,8.0,15.0,87,0.00,,---,0.00,VWS V14.01,2013-03-16 12:29:00,
2013-03-16 07:34:00,58.4,54.9,29.86,South,173,11.0,14.0,88,0.00,,---,0.00,VWS V14.01,2013-03-16 12:34:00,
2013-03-16 07:39:00,58.4,54.9,29.86,SSW,201,7.0,16.0,88,0.00,,---,0.00,VWS V14.01,2013-03-16 12:39:00,
2013-03-16 07:44:00,58.4,54.9,29.86,SSE,168,9.0,16.0,88,0.00,,---,0.00,VWS V14.01,2013-03-16 12:44:00,
2013-03-16 07:49:00,58.5,55.0,29.86,South,174,10.0,18.0,88,0.00,,---,0.00,VWS V14.01,2013-03-16 12:49:00,
2013-03-16 07:54:00,58.6,55.1,29.86,SSE,155,10.0,18.0,88,0.00,,---,0.00,VWS V14.01,2013-03-16 12:54:00,
2013-03-16 07:59:00,58.6,55.1,29.86,SSE,158,7.0,18.0,88,0.00,,---,0.00,VWS V14.01,2013-03-16 12:59:00,
2013-03-16 08:04:00,58.7,55.2,29.86,SSE,153,17.0,18.0,88,0.00,,---,0.00,VWS V14.01,2013-03-16 13:04:00,
2013-03-16 08:09:00,58.8,55.3,29.86,South,186,5.0,18.0,88,0.00,,---,0.00,VWS V14.01,2013-03-16 13:09:00,
2013-03-16 08:14:00,58.9,55.0,29.86,SSE,149,8.0,18.0,87,0.00,,---,0.00,VWS V14.01,2013-03-16 13:14:00,
2013-03-16 08:19:00,59.0,55.1,29.86,SSE,167,8.0,18.0,87,0.00,,---,0.00,VWS V14.01,2013-03-16 13:19:00,
2013-03-16 08:24:00,59.1,55.2,29.86,SE,145,11.0,18.0,87,0.00,,---,0.00,VWS V14.01,2013-03-16 13:24:00,
2013-03-16 08:29:00,59.3,55.4,29.86,SSE,166,7.0,18.0,87,0.00,,---,0.00,VWS V14.01,2013-03-16 13:29:00,
2013-03-16 08:34:00,59.4,55.2,29.86,SSE,162,14.0,20.0,86,0.00,,---,0.00,VWS V14.01,2013-03-16 13:34:00,
2013-03-16 08:39:00,59.7,55.5,29.86,SSE,159,7.0,20.0,86,0.00,,---,0.00,VWS V14.01,2013-03-16 13:39:00,
2013-03-16 08:44:00,60.0,55.5,29.86,SSW,211,7.0,20.0,85,0.00,,---,0.00,VWS V14.01,2013-03-16 13:44:00,
2013-03-16 08:49:00,60.3,55.8,29.86,SSE,156,14.0,20.0,85,0.00,,---,0.00,VWS V14.01,2013-03-16 13:49:00,
2013-03-16 08:54:00,60.5,55.7,29.86,South,191,9.0,20.0,84,0.00,,---,0.00,VWS V14.01,2013-03-16 13:54:00,
2013-03-16 08:59:00,60.9,56.0,29.86,SSE,161,11.0,20.0,84,0.00,,---,0.00,VWS V14.01,2013-03-16 13:59:00,
2013-03-16 09:04:00,61.2,56.0,29.86,South,171,11.0,13.0,83,0.00,,---,0.00,VWS V14.01,2013-03-16 14:04:00,
2013-03-16 09:09:00,61.5,56.0,29.86,SSE,166,15.0,16.0,82,0.00,,---,0.00,VWS V14.01,2013-03-16 14:09:00,
2013-03-16 09:14:00,61.7,56.2,29.86,SSE,166,9.0,16.0,82,0.00,,---,0.00,VWS V14.01,2013-03-16 14:14:00,
2013-03-16 09:19:00,62.0,56.5,29.86,SSE,163,12.0,17.0,82,0.00,,---,0.00,VWS V14.01,2013-03-16 14:19:00,
2013-03-16 09:24:00,62.2,56.3,29.86,SSW,193,11.0,22.0,81,0.00,,---,0.00,VWS V14.01,2013-03-16 14:24:00,
2013-03-16 09:29:00,62.6,56.3,29.86,SSE,150,14.0,22.0,80,0.00,,---,0.00,VWS V14.01,2013-03-16 14:29:00,
2013-03-16 09:34:00,62.9,56.6,29.86,South,172,8.0,16.0,80,0.00,,---,0.00,VWS V14.01,2013-03-16 14:34:00,
2013-03-16 09:39:00,63.1,56.5,29.86,South,191,10.0,17.0,79,0.00,,---,0.00,VWS V14.01,2013-03-16 14:39:00,
2013-03-16 09:44:00,63.4,56.8,29.86,SSE,167,12.0,21.0,79,0.00,,---,0.00,VWS V14.01,2013-03-16 14:44:00,
2013-03-16 09:49:00,63.8,56.8,29.86,SSE,162,12.0,21.0,78,0.00,,---,0.00,VWS V14.01,2013-03-16 14:49:00,
2013-03-16 09:54:00,64.1,56.8,29.86,SSE,161,18.0,21.0,77,0.00,,---,0.00,VWS V14.01,2013-03-16 14:54:00,
2013-03-16 09:59:00,64.2,56.5,29.86,South,173,10.0,21.0,76,0.00,,---,0.00,VWS V14.01,2013-03-16 14:59:00,
2013-03-16 10:04:00,64.5,56.8,29.87,SSE,161,10.0,16.0,76,0.00,,---,0.00,VWS V14.01,2013-03-16 15:04:00,
2013-03-16 10:09:00,64.9,56.8,29.87,South,171,10.0,22.0,75,0.00,,---,0.00,VWS V14.01,2013-03-16 15:09:00,
2013-03-16 10:14:00,65.2,57.1,29.86,SSW,193,9.0,22.0,75,0.00,,---,0.00,VWS V14.01,2013-03-16 15:14:00,
2013-03-16 10:19:00,65.5,57.0,29.86,South,179,10.0,22.0,74,0.00,,---,0.00,VWS V14.01,2013-03-16 15:19:00,
2013-03-16 10:24:00,66.0,57.1,29.86,SSE,156,9.0,22.0,73,0.00,,---,0.00,VWS V14.01,2013-03-16 15:24:00,
2013-03-16 10:29:00,66.3,57.0,29.86,SSW,197,9.0,22.0,72,0.00,,---,0.00,VWS V14.01,2013-03-16 15:29:00,
2013-03-16 10:34:00,66.5,56.8,29.86,SSE,154,11.0,18.0,71,0.00,,---,0.00,VWS V14.01,2013-03-16 15:34:00,
2013-03-16 10:39:00,66.8,57.1,29.86,South,174,13.0,18.0,71,0.00,,---,0.00,VWS V14.01,2013-03-16 15:39:00,
2013-03-16 10:44:00,67.2,57.5,29.86,SW,221,22.0,22.0,71,0.00,,---,0.00,VWS V14.01,2013-03-16 15:44:00,
2013-03-16 10:49:00,67.4,57.3,29.87,SSW,197,9.0,22.0,70,0.00,,---,0.00,VWS V14.01,2013-03-16 15:49:00,
2013-03-16 10:54:00,67.7,57.2,29.87,SSW,207,8.0,22.0,69,0.00,,---,0.00,VWS V14.01,2013-03-16 15:54:00,
2013-03-16 10:59:00,68.1,57.2,29.86,South,186,11.0,22.0,68,0.00,,---,0.00,VWS V14.01,2013-03-16 15:59:00,
2013-03-16 11:04:00,68.4,57.0,29.86,South,172,10.0,20.0,67,0.00,,---,0.00,VWS V14.01,2013-03-16 16:04:00,
2013-03-16 11:09:00,68.4,56.6,29.86,SSW,205,13.0,20.0,66,0.00,,---,0.00,VWS V14.01,2013-03-16 16:09:00,
2013-03-16 11:14:00,68.5,56.7,29.85,SSE,156,23.0,23.0,66,0.00,,---,0.00,VWS V14.01,2013-03-16 16:14:00,
2013-03-16 11:19:00,68.7,56.9,29.85,South,176,12.0,24.0,66,0.00,,---,0.00,VWS V14.01,2013-03-16 16:19:00,
2013-03-16 11:24:00,69.3,57.0,29.85,SW,221,13.0,25.0,65,0.00,,---,0.00,VWS V14.01,2013-03-16 16:24:00,
2013-03-16 11:29:00,69.6,56.9,29.85,South,180,14.0,25.0,64,0.00,,---,0.00,VWS V14.01,2013-03-16 16:29:00,
2013-03-16 11:34:00,69.6,56.9,29.85,South,177,10.0,16.0,64,0.00,,---,0.00,VWS V14.01,2013-03-16 16:34:00,
2013-03-16 11:39:00,70.0,57.3,29.85,SSW,197,9.0,19.0,64,0.00,,---,0.00,VWS V14.01,2013-03-16 16:39:00,
2013-03-16 11:44:00,70.1,57.4,29.85,SSW,205,6.0,20.0,64,0.00,,---,0.00,VWS V14.01,2013-03-16 16:44:00,
2013-03-16 11:49:00,70.6,57.4,29.85,SSE,167,18.0,20.0,63,0.00,,---,0.00,VWS V14.01,2013-03-16 16:49:00,
2013-03-16 11:54:00,70.7,57.1,29.84,SSE,153,12.0,23.0,62,0.00,,---,0.00,VWS V14.01,2013-03-16 16:54:00,
2013-03-16 11:59:00,70.6,57.0,29.84,SSE,161,10.0,23.0,62,0.00,,---,0.00,VWS V14.01,2013-03-16 16:59:00,
2013-03-16 12:04:00,70.9,57.2,29.84,South,174,13.0,19.0,62,0.00,,---,0.00,VWS V14.01,2013-03-16 17:04:00,
2013-03-16 12:09:00,71.2,57.1,29.84,SSE,161,9.0,20.0,61,0.00,,---,0.00,VWS V14.01,2013-03-16 17:09:00,
2013-03-16 12:14:00,71.7,57.1,29.83,South,177,8.0,20.0,60,0.00,,---,0.00,VWS V14.01,2013-03-16 17:14:00,
2013-03-16 12:19:00,71.9,57.3,29.83,SSE,156,14.0,20.0,60,0.00,,---,0.00,VWS V14.01,2013-03-16 17:19:00,
2013-03-16 12:24:00,72.1,57.5,29.83,South,176,8.0,20.0,60,0.00,,---,0.00,VWS V14.01,2013-03-16 17:24:00,
2013-03-16 12:29:00,72.0,57.4,29.83,WSW,255,5.0,20.0,60,0.00,,---,0.00,VWS V14.01,2013-03-16 17:29:00,
2013-03-16 12:34:00,72.5,56.9,29.84,South,181,14.0,23.0,58,0.00,,---,0.00,VWS V14.01,2013-03-16 17:34:00,
2013-03-16 12:39:00,72.9,57.3,29.84,SW,218,9.0,23.0,58,0.00,,---,0.00,VWS V14.01,2013-03-16 17:39:00,
2013-03-16 12:44:00,73.2,57.5,29.83,South,169,14.0,23.0,58,0.00,,---,0.00,VWS V14.01,2013-03-16 17:44:00,
2013-03-16 12:49:00,73.4,57.7,29.83,South,188,8.0,23.0,58,0.00,,---,0.00,VWS V14.01,2013-03-16 17:49:00,
2013-03-16 12:54:00,73.5,57.8,29.83,SSE,154,12.0,23.0,58,0.00,,---,0.00,VWS V14.01,2013-03-16 17:54:00,
2013-03-16 12:59:00,74.0,57.3,29.83,SE,139,10.0,23.0,56,0.00,,---,0.00,VWS V14.01,2013-03-16 17:59:00,
2013-03-16 13:04:00,74.4,57.7,29.83,South,179,9.0,18.0,56,0.00,,---,0.00,VWS V14.01,2013-03-16 18:04:00,
2013-03-16 13:09:00,74.6,57.4,29.82,SSW,200,12.0,20.0,55,0.00,,---,0.00,VWS V14.01,2013-03-16 18:09:00,
2013-03-16 13:14:00,74.2,57.0,29.82,South,174,15.0,21.0,55,0.00,,---,0.00,VWS V14.01,2013-03-16 18:14:00,
2013-03-16 13:19:00,74.2,57.0,29.82,SE,146,19.0,21.0,55,0.00,,---,0.00,VWS V14.01,2013-03-16 18:19:00,
2013-03-16 13:24:00,74.5,58.3,29.82,SSE,150,6.0,21.0,57,0.00,,---,0.00,VWS V14.01,2013-03-16 18:24:00,
2013-03-16 13:29:00,74.1,57.9,29.82,SSE,167,7.0,21.0,57,0.00,,---,0.00,VWS V14.01,2013-03-16 18:29:00,
2013-03-16 13:34:00,74.1,57.9,29.82,SSE,160,10.0,13.0,57,0.00,,---,0.00,VWS V14.01,2013-03-16 18:34:00,
2013-03-16 13:39:00,74.0,57.8,29.81,South,179,9.0,16.0,57,0.00,,---,0.00,VWS V14.01,2013-03-16 18:39:00,
2013-03-16 13:44:00,74.4,57.7,29.81,SE,132,4.0,16.0,56,0.00,,---,0.00,VWS V14.01,2013-03-16 18:44:00,
2013-03-16 13:49:00,74.5,57.3,29.81,SSE,156,12.0,17.0,55,0.00,,---,0.00,VWS V14.01,2013-03-16 18:49:00,
2013-03-16 13:54:00,74.9,57.7,29.81,SSE,160,7.0,17.0,55,0.00,,---,0.00,VWS V14.01,2013-03-16 18:54:00,
2013-03-16 13:59:00,74.9,57.7,29.80,SSE,160,7.0,17.0,55,0.00,,---,0.00,VWS V14.01,2013-03-16 18:59:00,
2013-03-16 14:04:00,75.2,57.9,29.80,SE,143,4.0,13.0,55,0.00,,---,0.00,VWS V14.01,2013-03-16 19:04:00,
2013-03-16 14:09:00,75.4,57.6,29.80,ENE,75,7.0,17.0,54,0.00,,---,0.00,VWS V14.01,2013-03-16 19:09:00,
2013-03-16 14:14:00,75.4,57.1,29.80,South,173,11.0,17.0,53,0.00,,---,0.00,VWS V14.01,2013-03-16 19:14:00,
2013-03-16 14:19:00,76.0,57.7,29.79,SE,138,10.0,20.0,53,0.00,,---,0.00,VWS V14.01,2013-03-16 19:19:00,
2013-03-16 14:24:00,76.2,57.3,29.79,SE,135,7.0,20.0,52,0.00,,---,0.00,VWS V14.01,2013-03-16 19:24:00,
2013-03-16 14:29:00,76.6,57.7,29.78,South,169,10.0,20.0,52,0.00,,---,0.00,VWS V14.01,2013-03-16 19:29:00,
2013-03-16 14:34:00,76.9,58.0,29.78,SSE,159,7.0,20.0,52,0.00,,---,0.00,VWS V14.01,2013-03-16 19:34:00,
2013-03-16 14:39:00,76.5,58.1,29.78,South,172,8.0,20.0,53,0.00,,---,0.00,VWS V14.01,2013-03-16 19:39:00,
2013-03-16 14:44:00,77.1,58.1,29.78,SSE,159,6.0,20.0,52,0.00,,---,0.00,VWS V14.01,2013-03-16 19:44:00,
2013-03-16 14:49:00,76.7,57.8,29.77,SSE,163,5.0,20.0,52,0.00,,---,0.00,VWS V14.01,2013-03-16 19:49:00,
2013-03-16 14:54:00,76.6,58.2,29.77,South,180,10.0,20.0,53,0.00,,---,0.00,VWS V14.01,2013-03-16 19:54:00,
2013-03-16 14:59:00,76.8,57.9,29.76,SSE,159,9.0,20.0,52,0.00,,---,0.00,VWS V14.01,2013-03-16 19:59:00,
2013-03-16 15:04:00,76.3,57.9,29.76,SSE,166,7.0,14.0,53,0.00,,---,0.00,VWS V14.01,2013-03-16 20:04:00,
2013-03-16 15:09:00,75.9,57.6,29.76,SSE,163,15.0,15.0,53,0.00,,---,0.00,VWS V14.01,2013-03-16 20:09:00,
2013-03-16 15:14:00,76.1,57.2,29.76,South,181,9.0,18.0,52,0.00,,---,0.00,VWS V14.01,2013-03-16 20:14:00,
2013-03-16 15:19:00,76.7,57.8,29.75,SSE,167,14.0,18.0,52,0.00,,---,0.00,VWS V14.01,2013-03-16 20:19:00,
2013-03-16 15:24:00,76.9,58.0,29.75,South,187,8.0,18.0,52,0.00,,---,0.00,VWS V14.01,2013-03-16 20:24:00,
2013-03-16 15:29:00,76.7,57.8,29.75,SE,142,7.0,18.0,52,0.00,,---,0.00,VWS V14.01,2013-03-16 20:29:00,
2013-03-16 15:34:00,76.9,57.4,29.75,South,181,14.0,17.0,51,0.00,,---,0.00,VWS V14.01,2013-03-16 20:34:00,
2013-03-16 15:39:00,77.5,57.4,29.74,SSE,167,11.0,18.0,50,0.00,,---,0.00,VWS V14.01,2013-03-16 20:39:00,
2013-03-16 15:44:00,78.2,56.9,29.74,SSE,161,20.0,21.0,48,0.00,,---,0.00,VWS V14.01,2013-03-16 20:44:00,
2013-03-16 15:49:00,78.4,57.7,29.74,SSE,153,8.0,21.0,49,0.00,,---,0.00,VWS V14.01,2013-03-16 20:49:00,
2013-03-16 15:54:00,77.8,57.1,29.74,South,169,12.0,21.0,49,0.00,,---,0.00,VWS V14.01,2013-03-16 20:54:00,
2013-03-16 15:59:00,77.4,57.3,29.74,SSE,147,7.0,21.0,50,0.00,,---,0.00,VWS V14.01,2013-03-16 20:59:00,
2013-03-16 16:04:00,77.5,57.4,29.73,SSE,160,9.0,14.0,50,0.00,,---,0.00,VWS V14.01,2013-03-16 21:04:00,
2013-03-16 16:09:00,77.9,57.8,29.73,SE,142,7.0,17.0,50,0.00,,---,0.00,VWS V14.01,2013-03-16 21:09:00,
2013-03-16 16:14:00,77.6,57.0,29.73,South,181,13.0,17.0,49,0.00,,---,0.00,VWS V14.01,2013-03-16 21:14:00,
2013-03-16 16:19:00,77.6,57.5,29.73,ESE,121,11.0,17.0,50,0.00,,---,0.00,VWS V14.01,2013-03-16 21:19:00,
2013-03-16 16:24:00,77.2,57.1,29.73,SSE,162,12.0,17.0,50,0.00,,---,0.00,VWS V14.01,2013-03-16 21:24:00,
2013-03-16 16:29:00,77.2,57.1,29.72,South,184,8.0,17.0,50,0.00,,---,0.00,VWS V14.01,2013-03-16 21:29:00,
2013-03-16 16:34:00,76.9,56.9,29.72,SSE,163,15.0,20.0,50,0.00,,---,0.00,VWS V14.01,2013-03-16 21:34:00,
2013-03-16 16:39:00,76.8,56.8,29.72,SSE,162,12.0,20.0,50,0.00,,---,0.00,VWS V14.01,2013-03-16 21:39:00,
2013-03-16 16:44:00,76.7,56.1,29.72,SSE,163,11.0,20.0,49,0.00,,---,0.00,VWS V14.01,2013-03-16 21:44:00,
2013-03-16 16:49:00,76.5,56.5,29.72,South,170,13.0,21.0,50,0.00,,---,0.00,VWS V14.01,2013-03-16 21:49:00,
2013-03-16 16:54:00,77.2,56.6,29.72,SSE,168,16.0,23.0,49,0.00,,---,0.00,VWS V14.01,2013-03-16 21:54:00,
2013-03-16 16:59:00,77.8,56.0,29.72,South,188,6.0,23.0,47,0.00,,---,0.00,VWS V14.01,2013-03-16 21:59:00,
2013-03-16 17:04:00,78.0,56.7,29.71,South,172,7.0,15.0,48,0.00,,---,0.00,VWS V14.01,2013-03-16 22:04:00,
2013-03-16 17:09:00,78.2,56.3,29.71,SSE,167,3.0,21.0,47,0.00,,---,0.00,VWS V14.01,2013-03-16 22:09:00,
2013-03-16 17:14:00,78.3,55.8,29.71,South,179,11.0,21.0,46,0.00,,---,0.00,VWS V14.01,2013-03-16 22:14:00,
2013-03-16 17:19:00,78.3,56.4,29.71,South,174,7.0,21.0,47,0.00,,---,0.00,VWS V14.01,2013-03-16 22:19:00,
2013-03-16 17:24:00,77.9,56.7,29.71,SSE,167,13.0,21.0,48,0.00,,---,0.00,VWS V14.01,2013-03-16 22:24:00,
2013-03-16 17:29:00,77.4,56.2,29.71,South,191,10.0,21.0,48,0.00,,---,0.00,VWS V14.01,2013-03-16 22:29:00,
2013-03-16 17:34:00,77.0,56.4,29.70,SSE,150,8.0,16.0,49,0.00,,---,0.00,VWS V14.01,2013-03-16 22:34:00,
2013-03-16 17:39:00,77.4,56.2,29.70,South,184,12.0,18.0,48,0.00,,---,0.00,VWS V14.01,2013-03-16 22:39:00,
2013-03-16 17:44:00,78.1,56.2,29.70,South,184,15.0,19.0,47,0.00,,---,0.00,VWS V14.01,2013-03-16 22:44:00,
2013-03-16 17:49:00,78.2,56.9,29.70,SSE,167,12.0,20.0,48,0.00,,---,0.00,VWS V14.01,2013-03-16 22:49:00,
2013-03-16 17:54:00,77.5,56.3,29.70,SSE,160,14.0,20.0,48,0.00,,---,0.00,VWS V14.01,2013-03-16 22:54:00,
2013-03-16 17:59:00,77.7,56.5,29.70,South,186,12.0,20.0,48,0.00,,---,0.00,VWS V14.01,2013-03-16 22:59:00,
2013-03-16 18:04:00,77.5,56.3,29.70,SSE,167,12.0,14.0,48,0.00,,---,0.00,VWS V14.01,2013-03-16 23:04:00,
2013-03-16 18:09:00,77.0,55.8,29.70,South,186,12.0,18.0,48,0.00,,---,0.00,VWS V14.01,2013-03-16 23:09:00,
2013-03-16 18:14:00,77.2,56.0,29.70,SSE,149,8.0,22.0,48,0.00,,---,0.00,VWS V14.01,2013-03-16 23:14:00,
2013-03-16 18:19:00,77.1,55.9,29.70,SSE,160,10.0,22.0,48,0.00,,---,0.00,VWS V14.01,2013-03-16 23:19:00,
2013-03-16 18:24:00,77.1,55.3,29.70,SSE,160,9.0,22.0,47,0.00,,---,0.00,VWS V14.01,2013-03-16 23:24:00,
2013-03-16 18:29:00,77.3,56.1,29.70,SSE,155,9.0,22.0,48,0.00,,---,0.00,VWS V14.01,2013-03-16 23:29:00,
2013-03-16 18:34:00,76.6,56.0,29.70,SSE,156,10.0,16.0,49,0.00,,---,0.00,VWS V14.01,2013-03-16 23:34:00,
2013-03-16 18:39:00,75.7,55.8,29.70,South,180,7.0,20.0,50,0.00,,---,0.00,VWS V14.01,2013-03-16 23:39:00,
2013-03-16 18:44:00,75.3,55.4,29.70,South,176,13.0,20.0,50,0.00,,---,0.00,VWS V14.01,2013-03-16 23:44:00,
2013-03-16 18:49:00,74.9,55.0,29.70,SSE,149,12.0,20.0,50,0.00,,---,0.00,VWS V14.01,2013-03-16 23:49:00,
2013-03-16 18:54:00,74.9,54.5,29.70,SSE,150,12.0,20.0,49,0.00,,---,0.00,VWS V14.01,2013-03-16 23:54:00,
2013-03-16 18:59:00,75.3,54.8,29.70,South,180,8.0,20.0,49,0.00,,---,0.00,VWS V14.01,2013-03-16 23:59:00,
2013-03-16 19:04:00,74.8,54.9,29.70,SSE,167,14.0,14.0,50,0.00,,---,0.00,VWS V14.01,2013-03-17 00:04:00,
2013-03-16 19:09:00,74.4,54.6,29.70,SSE,166,15.0,18.0,50,0.00,,---,0.00,VWS V14.01,2013-03-17 00:09:00,
2013-03-16 19:14:00,74.5,54.1,29.70,SSE,160,8.0,18.0,49,0.00,,---,0.00,VWS V14.01,2013-03-17 00:14:00,
2013-03-16 19:19:00,74.4,54.0,29.70,SSE,158,7.0,19.0,49,0.00,,---,0.00,VWS V14.01,2013-03-17 00:19:00,
2013-03-16 19:24:00,73.9,54.1,29.70,South,184,10.0,19.0,50,0.00,,---,0.00,VWS V14.01,2013-03-17 00:24:00,
2013-03-16 19:29:00,73.5,54.3,29.70,SSE,156,10.0,19.0,51,0.00,,---,0.00,VWS V14.01,2013-03-17 00:29:00,
2013-03-16 19:34:00,73.2,54.0,29.70,SSE,150,10.0,12.0,51,0.00,,---,0.00,VWS V14.01,2013-03-17 00:34:00,
2013-03-16 19:39:00,73.1,53.9,29.70,SSE,158,8.0,14.0,51,0.00,,---,0.00,VWS V14.01,2013-03-17 00:39:00,
2013-03-16 19:44:00,73.1,53.9,29.70,SSE,163,8.0,14.0,51,0.00,,---,0.00,VWS V14.01,2013-03-17 00:44:00,
2013-03-16 19:49:00,72.9,54.3,29.71,SSE,166,9.0,14.0,52,0.00,,---,0.00,VWS V14.01,2013-03-17 00:49:00,
2013-03-16 19:54:00,72.6,54.0,29.70,SSE,160,9.0,14.0,52,0.00,,---,0.00,VWS V14.01,2013-03-17 00:54:00,
2013-03-16 19:59:00,72.4,54.3,29.71,SSE,166,6.0,14.0,53,0.00,,---,0.00,VWS V14.01,2013-03-17 00:59:00,
2013-03-16 20:04:00,72.1,54.6,29.71,SSE,165,9.0,10.0,54,0.00,,---,0.00,VWS V14.01,2013-03-17 01:04:00,
2013-03-16 20:09:00,71.9,54.4,29.71,SSE,160,8.0,10.0,54,0.00,,---,0.00,VWS V14.01,2013-03-17 01:09:00,
2013-03-16 20:14:00,71.7,54.7,29.71,SSE,167,5.0,10.0,55,0.00,,---,0.00,VWS V14.01,2013-03-17 01:14:00,
2013-03-16 20:19:00,71.6,54.6,29.71,SSE,157,3.0,10.0,55,0.00,,---,0.00,VWS V14.01,2013-03-17 01:19:00,
2013-03-16 20:24:00,71.4,54.4,29.71,SE,141,2.0,10.0,55,0.00,,---,0.00,VWS V14.01,2013-03-17 01:24:00,
2013-03-16 20:29:00,71.0,55.0,29.71,SE,146,2.0,10.0,57,0.00,,---,0.00,VWS V14.01,2013-03-17 01:29:00,
2013-03-16 20:34:00,70.6,54.6,29.72,SSE,165,2.0,4.0,57,0.00,,---,0.00,VWS V14.01,2013-03-17 01:34:00,
2013-03-16 20:39:00,70.5,54.5,29.72,SE,138,2.0,4.0,57,0.00,,---,0.00,VWS V14.01,2013-03-17 01:39:00,
2013-03-16 20:44:00,70.1,54.2,29.72,SE,128,1.0,4.0,57,0.00,,---,0.00,VWS V14.01,2013-03-17 01:44:00,
2013-03-16 20:49:00,69.9,54.5,29.72,SE,128,4.0,4.0,58,0.00,,---,0.00,VWS V14.01,2013-03-17 01:49:00,
2013-03-16 20:54:00,69.7,54.3,29.72,ESE,121,5.0,5.0,58,0.00,,---,0.00,VWS V14.01,2013-03-17 01:54:00,
2013-03-16 20:59:00,69.8,54.4,29.72,SE,138,5.0,6.0,58,0.00,,---,0.00,VWS V14.01,2013-03-17 01:59:00,
2013-03-16 21:04:00,69.7,54.8,29.72,SE,139,2.0,3.0,59,0.00,,---,0.00,VWS V14.01,2013-03-17 02:04:00,
2013-03-16 21:09:00,69.4,54.9,29.72,SE,136,1.0,5.0,60,0.00,,---,0.00,VWS V14.01,2013-03-17 02:09:00,
2013-03-16 21:14:00,69.2,54.7,29.72,SE,131,3.0,5.0,60,0.00,,---,0.00,VWS V14.01,2013-03-17 02:14:00,
2013-03-16 21:19:00,69.1,54.7,29.73,SE,131,2.0,5.0,60,0.00,,---,0.00,VWS V14.01,2013-03-17 02:19:00,
2013-03-16 21:24:00,69.0,55.0,29.73,SSE,151,2.0,5.0,61,0.00,,---,0.00,VWS V14.01,2013-03-17 02:24:00,
2013-03-16 21:29:00,68.9,54.9,29.73,SE,139,3.0,5.0,61,0.00,,---,0.00,VWS V14.01,2013-03-17 02:29:00,
2013-03-16 21:34:00,68.7,54.7,29.73,SSE,150,3.0,3.0,61,0.00,,---,0.00,VWS V14.01,2013-03-17 02:34:00,
2013-03-16 21:39:00,68.6,55.1,29.73,SE,142,1.0,3.0,62,0.00,,---,0.00,VWS V14.01,2013-03-17 02:39:00,
2013-03-16 21:44:00,68.6,55.1,29.73,SE,145,1.0,3.0,62,0.00,,---,0.00,VWS V14.01,2013-03-17 02:44:00,
2013-03-16 21:49:00,68.6,54.6,29.73,SSE,150,1.0,3.0,61,0.00,,---,0.00,VWS V14.01,2013-03-17 02:49:00,
2013-03-16 21:54:00,68.8,54.8,29.74,SE,132,2.0,3.0,61,0.00,,---,0.00,VWS V14.01,2013-03-17 02:54:00,
2013-03-16 21:59:00,69.0,54.5,29.74,ESE,108,2.0,4.0,60,0.00,,---,0.00,VWS V14.01,2013-03-17 02:59:00,
2013-03-16 22:04:00,69.0,54.5,29.74,SE,136,2.0,3.0,60,0.00,,---,0.00,VWS V14.01,2013-03-17 03:04:00,
2013-03-16 22:09:00,68.8,54.8,29.74,SE,135,1.0,3.0,61,0.00,,---,0.00,VWS V14.01,2013-03-17 03:09:00,
2013-03-16 22:14:00,68.5,55.0,29.74,SE,131,2.0,3.0,62,0.00,,---,0.00,VWS V14.01,2013-03-17 03:14:00,
2013-03-16 22:19:00,68.3,54.8,29.75,SE,131,1.0,4.0,62,0.00,,---,0.00,VWS V14.01,2013-03-17 03:19:00,
2013-03-16 22:24:00,68.0,55.0,29.74,SE,127,2.0,4.0,63,0.00,,---,0.00,VWS V14.01,2013-03-17 03:24:00,
2013-03-16 22:29:00,67.8,54.8,29.74,ESE,117,3.0,4.0,63,0.00,,---,0.00,VWS V14.01,2013-03-17 03:29:00,
2013-03-16 22:34:00,67.6,55.0,29.74,SE,136,1.0,3.0,64,0.00,,---,0.00,VWS V14.01,2013-03-17 03:34:00,
2013-03-16 22:39:00,67.4,54.8,29.74,SE,146,2.0,4.0,64,0.00,,---,0.00,VWS V14.01,2013-03-17 03:39:00,
2013-03-16 22:44:00,67.3,54.7,29.74,SSE,156,3.0,6.0,64,0.00,,---,0.00,VWS V14.01,2013-03-17 03:44:00,
2013-03-16 22:49:00,67.5,55.3,29.74,SSE,163,5.0,9.0,65,0.00,,---,0.00,VWS V14.01,2013-03-17 03:49:00,
2013-03-16 22:54:00,67.3,55.2,29.74,South,173,4.0,9.0,65,0.00,,---,0.00,VWS V14.01,2013-03-17 03:54:00,
2013-03-16 22:59:00,67.1,55.0,29.74,SE,141,4.0,9.0,65,0.00,,---,0.00,VWS V14.01,2013-03-17 03:59:00,
2013-03-16 23:00:00,67.1,55.0,29.74,SE,142,4.0,9.0,65,0.00,,---,0.00,VWS V14.01,2013-03-17 04:00:00,
2013-03-16 23:05:00,66.5,55.2,29.73,SSE,165,5.0,5.0,67,0.00,,---,0.00,VWS V14.01,2013-03-17 04:05:00,
2013-03-16 23:10:00,66.0,55.5,29.73,SSE,153,4.0,5.0,69,0.00,,---,0.00,VWS V14.01,2013-03-17 04:10:00,
2013-03-16 23:15:00,65.7,55.3,29.73,ESE,107,7.0,10.0,69,0.00,,---,0.00,VWS V14.01,2013-03-17 04:15:00,
2013-03-16 23:20:00,66.2,55.7,29.73,SE,138,8.0,10.0,69,0.00,,---,0.00,VWS V14.01,2013-03-17 04:20:00,
2013-03-16 23:25:00,66.4,55.9,29.73,SSE,160,7.0,10.0,69,0.00,,---,0.00,VWS V14.01,2013-03-17 04:25:00,
2013-03-16 23:30:00,66.2,55.7,29.73,SE,134,5.0,10.0,69,0.00,,---,0.00,VWS V14.01,2013-03-17 04:30:00,
2013-03-16 23:35:00,66.3,55.8,29.73,South,173,5.0,10.0,69,0.00,,---,0.00,VWS V14.01,2013-03-17 04:35:00,
2013-03-16 23:40:00,66.3,55.8,29.74,SE,141,6.0,10.0,69,0.00,,---,0.00,VWS V14.01,2013-03-17 04:40:00,
2013-03-16 23:45:00,66.3,56.6,29.74,SSE,151,9.0,13.0,71,0.00,,---,0.00,VWS V14.01,2013-03-17 04:45:00,
2013-03-16 23:50:00,66.5,56.8,29.74,SSE,156,5.0,13.0,71,0.00,,---,0.00,VWS V14.01,2013-03-17 04:50:00,
2013-03-16 23:55:00,66.6,56.9,29.74,SSE,164,5.0,13.0,71,0.00,,---,0.00,VWS V14.01,2013-03-17 04:55:00,